This is the latest recevied weather packets stored in our database for station/object W1SCW. If no packets are shown the sender has not sent any weather packets the latest 10 day(s).
| Time | Temp. | Humidity | Pressure | Rain* | Wind** | Luminosity | Snow |
|---|---|---|---|---|---|---|---|
| 1777817542 | 22.22° C | 57% | 1021.2 hPa | 0 mm | - | 403 W/m² | - |
| 1777817239 | 22.22° C | 59% | 1021.4 hPa | 0 mm | - | 385 W/m² | - |
| 1777816936 | 22.22° C | 60% | 1021 hPa | 0 mm | - | 364 W/m² | - |
| 1777816633 | 22.22° C | 62% | 1021.1 hPa | 0 mm | - | 393 W/m² | - |
| 1777816329 | 21.67° C | 66% | 1021.1 hPa | 0 mm | - | 422 W/m² | - |
| 1777816027 | 20.56° C | 64% | 1021.1 hPa | 0 mm | - | 325 W/m² | - |
| 1777815724 | 20.56° C | 66% | 1020.9 hPa | 0 mm | - | 240 W/m² | - |
| 1777815422 | 20.56° C | 67% | 1020.9 hPa | 0 mm | - | 203 W/m² | - |
| 1777815119 | 20.56° C | 68% | 1020.9 hPa | 0 mm | - | 179 W/m² | - |
| 1777814815 | 20° C | 70% | 1020.9 hPa | 0 mm | - | 167 W/m² | - |
| 1777814511 | 19.44° C | 70% | 1020.7 hPa | 0 mm | - | 162 W/m² | - |
| 1777814209 | 19.44° C | 72% | 1020.8 hPa | 0 mm | - | 157 W/m² | - |
| 1777813905 | 18.89° C | 75% | 1020.7 hPa | 0 mm | - | 153 W/m² | - |
| 1777813603 | 18.33° C | 76% | 1020.6 hPa | 0 mm | - | 145 W/m² | - |
| 1777813301 | 17.78° C | 82% | 1020.7 hPa | 0 mm | - | 132 W/m² | - |
| 1777812997 | 18.33° C | 93% | 1020.9 hPa | 0 mm | - | 119 W/m² | - |
| 1777812695 | 17.22° C | 95% | 1020.6 hPa | 0 mm | - | 107 W/m² | - |
| 1777812391 | 17.22° C | 98% | 1020.7 hPa | 0 mm | - | 97 W/m² | - |
| 1777812090 | 16.11° C | 98% | 1020.6 hPa | 0 mm | - | 89 W/m² | - |
| 1777811788 | 16.67° C | 98% | 1020.5 hPa | 0 mm | - | 80 W/m² | - |
| 1777811485 | 16.11° C | 99% | 1020.4 hPa | 0 mm | - | 70 W/m² | - |
| 1777811181 | 15.56° C | 99% | 1020.4 hPa | 0 mm | - | 57 W/m² | - |
| 1777810879 | 15° C | 99% | 1020.3 hPa | 0 mm | - | 49 W/m² | - |
| 1777810575 | 13.89° C | 99% | 1020.4 hPa | 0 mm | - | 42 W/m² | - |
| 1777810272 | 12.78° C | 99% | 1020.3 hPa | 0 mm | - | 27 W/m² | - |
* Rain latest hour (hover to see other rain measurements)
** Current wind speed in m/s (hover to see current wind gust speed)